W2DEN Weather Reports


Display with metric or nautical units.
time (UTC)temp
F
wind
direction
speed
MPH
gust
MPH
rain 1hr
in
rain 24hr
in
rain mn
in
humidity
%
barometer
mb
20260503011017 56 0.0 0.0 0.00 1.90 1.88 96 1013.5
20260503010017 57 0.0 0.0 0.00 1.90 1.88 96 1013.4
20260503005017 57 0.0 0.0 0.00 1.90 1.88 96 1013.4
20260503004017 57 0.0 0.0 0.00 1.90 1.88 96 1013.3
20260503003017 57 0.0 0.0 0.00 1.90 1.88 95 1013.3
20260503002018 57 0.0 0.0 0.00 1.90 1.88 95 1013.0
20260503001017 57 0.0 0.0 0.00 1.90 1.88 95 1012.6
20260503000017 58 0.0 0.0 0.00 1.90 1.88 95 1012.4
20260502235017 58 0.0 1.0 0.01 1.90 1.88 95 1012.4
20260502234019 58 0.0 0.0 0.01 1.90 1.88 95 1012.5
20260502233017 58 0.0 0.0 0.01 1.90 1.88 95 1012.4
20260502232017 58 0.0 1.0 0.01 1.90 1.88 95 1012.4
20260502231039 58 23 1.0 3.0 0.02 1.90 1.88 95 1012.5
20260502230018 58 0.0 1.0 0.02 1.90 1.88 94 1012.3
20260502225038 58 0.0 1.0 0.01 1.90 1.87 94 1012.3
20260502224018 59 23 2.0 5.0 0.01 1.90 1.87 95 1012.3
20260502223017 58 0.0 0.0 0.01 1.90 1.87 95 1012.0
20260502222017 58 0 1.0 2.0 0.01 1.90 1.87 94 1011.9
20260502221018 58 203 1.0 2.0 0.01 1.89 1.86 94 1011.9
20260502220037 59 45 1.0 2.0 0.01 1.89 1.86 95 1011.7
20260502215017 59 45 1.0 2.0 0.01 1.89 1.86 94 1011.5
20260502214018 59 23 1.0 3.0 0.02 1.89 1.86 94 1011.3
20260502213038 59 0 1.0 7.0 0.05 1.89 1.86 95 1011.2
20260502212038 59 23 2.0 3.0 0.06 1.89 1.86 94 1011.2
20260502211017 60 23 1.0 3.0 0.05 1.88 1.85 94 1011.2
20260502210057 60 0.0 1.0 0.05 1.89 1.85 95 1011.0
20260502205038 60 0 1.0 4.0 0.05 1.90 1.85 95 1010.9
20260502204018 60 225 2.0 5.0 0.05 1.89 1.84 94 1010.9
20260502203017 60 23 1.0 2.0 0.02 1.86 1.81 94 1010.8
20260502202017 61 225 1.0 3.0 0.01 1.86 1.80 94 1010.5
20260502201018 61 0.0 0.0 0.01 1.86 1.80 94 1010.5
20260502200018 61 23 2.0 3.0 0.01 1.87 1.80 94 1010.5
20260502195017 60 0.0 0.0 0.01 1.88 1.80 94 1010.7
20260502194019 61 0 1.0 2.0 0.00 1.87 1.79 94 1010.5
20260502193017 61 0 1.0 1.0 0.00 1.87 1.79 93 1010.5
20260502192018 61 180 1.0 1.0 0.00 1.87 1.79 94 1010.5
20260502191017 60 338 1.0 2.0 0.00 1.87 1.79 93 1010.4
20260502190038 60 23 1.0 2.0 0.01 1.87 1.79 94 1010.5
20260502185017 60 338 1.0 1.0 0.01 1.87 1.79 94 1010.9
20260502184018 60 23 1.0 3.0 0.03 1.87 1.79 94 1010.9
20260502182017 60 0 2.0 4.0 0.06 1.87 1.79 94 1010.7
20260502181019 60 0.0 1.0 0.06 1.87 1.79 94 1010.8
20260502164017 60 0.0 1.0 0.08 1.81 1.73 95 1010.5
20260502163018 59 23 3.0 5.0 0.09 1.81 1.73 95 1010.9
20260502162137 60 0.0 1.0 0.08 1.80 1.72 95 1011.4
20260502161018 59 0.0 1.0 0.08 1.79 1.71 95 1011.4
20260502152016 60 23 1.0 2.0 0.08 1.73 1.64 95 1011.1
20260502151018 60 0.0 2.0 0.08 1.73 1.63 95 1011.3
20260502123017 60 0.0 1.0 0.31 1.40 1.29 96 1011.1
20260502122017 60 0.0 0.0 0.31 1.35 1.24 96 1011.2
20260502121017 60 0.0 0.0 0.28 1.29 1.18 96 1011.5
20260502115018 60 0.0 1.0 0.27 1.20 1.09 96 1010.6
20260502114017 60 0.0 0.0 0.22 1.15 1.04 96 1010.4
20260502113017 61 225 1.0 2.0 0.17 1.09 0.98 96 1010.3
20260502112016 61 0.0 1.0 0.12 1.04 0.93 96 1010.4
20260502111018 61 0.0 1.0 0.09 1.01 0.90 96 1010.6
20260502110017 61 0.0 1.0 0.03 0.95 0.84 96 1010.4
20260502105016 61 248 1.0 2.0 0.02 0.93 0.82 96 1010.1
20260502104017 61 0.0 1.0 0.05 0.93 0.82 96 1009.4
20260502103016 61 293 1.0 2.0 0.11 0.92 0.81 96 1009.1
20260502102017 61 23 1.0 2.0 0.13 0.92 0.81 96 1009.4
20260502101016 61 23 1.0 1.0 0.14 0.92 0.81 96 1009.4
20260502091016 62 23 1.0 2.0 0.20 0.78 0.67 96 1010.7
20260502071017 64 0.0 0.0 0.16 0.35 0.24 96 1010.7
20260502070017 64 0.0 0.0 0.14 0.32 0.21 96 1011.1
20260502065018 64 0.0 0.0 0.12 0.28 0.17 96 1011.4
20260502064016 64 0.0 0.0 0.12 0.26 0.15 96 1011.2
20260502063037 64 0.0 0.0 0.11 0.24 0.13 96 1011.2
20260502062017 64 0.0 0.0 0.09 0.21 0.10 96 1011.4
20260502061016 65 0.0 0.0 0.08 0.19 0.08 96 1011.5
20260502060016 65 0.0 0.0 0.07 0.18 0.07 96 1011.5
20260502055017 65 0.0 0.0 0.05 0.16 0.05 96 1011.7
20260502054016 65 0.0 0.0 0.03 0.14 0.03 96 1012.1
20260502053016 65 0.0 0.0 0.02 0.13 0.02 96 1011.9
20260502052017 65 0.0 1.0 0.01 0.12 0.01 96 1011.9
20260502051057 65 0.0 0.0 0.00 0.11 0.00 96 1012.1
20260502050017 65 0.0 0.0 0.00 0.11 0.00 96 1012.2
20260502045036 65 0.0 0.0 0.00 0.11 0.00 96 1012.0
20260502044016 64 0.0 0.0 0.01 0.11 0.00 96 1011.7
20260502043017 64 0.0 0.0 0.01 0.11 0.00 96 1011.5
20260502042017 64 0.0 0.0 0.01 0.11 0.00 96 1011.5
20260502041016 65 0.0 1.0 0.02 0.11 0.00 96 1011.2
20260502040016 65 0.0 0.0 0.02 0.11 0.11 96 1011.4
20260502035017 65 0.0 0.0 0.02 0.11 0.11 96 1011.6
20260502034017 65 0.0 0.0 0.01 0.10 0.10 96 1011.6
20260502033017 65 0.0 0.0 0.01 0.10 0.10 96 1011.8
20260502032037 65 0.0 0.0 0.01 0.10 0.10 96 1011.9
20260502031017 65 0.0 0.0 0.00 0.09 0.09 96 1011.9
20260502030017 65 0.0 0.0 0.00 0.09 0.09 96 1011.8
20260502025017 65 0.0 1.0 0.00 0.09 0.09 96 1011.8
20260502024017 65 0.0 0.0 0.00 0.09 0.09 96 1011.8
20260502023017 65 0.0 0.0 0.00 0.09 0.09 95 1011.9
20260502022018 65 0.0 0.0 0.00 0.09 0.09 95 1011.8
20260502021017 65 0.0 0.0 0.00 0.09 0.09 95 1011.8
20260502020017 65 0.0 0.0 0.00 0.09 0.09 95 1011.8
20260502015017 65 0.0 0.0 0.00 0.09 0.09 95 1012.1
20260502014017 65 0.0 0.0 0.00 0.09 0.09 95 1012.4
20260502013017 66 0.0 0.0 0.00 0.09 0.09 95 1012.2
20260502012059 66 0.0 0.0 0.00 0.09 0.09 95 1012.6
20260502011917 66 0.0 0.0 0.00 0.09 0.09 95 1012.6